User: anonymous   Login
Location: Bruch
(44.2051°N, 0.4120°E)
Time: 21:51:28
(UTC+00:00)
Language:

ASTRO F (AKARI) - Orbit

View from above orbital plane
View from above orbital plane
View from above satellite
View from above satellite

Ground track
Ground track

The orbit data is extracted from the following two-line orbital elements,

1 28939U 06005A   21058.32582586  .00004118  00000-0  10525-3 0  9997
2 28939  98.2492  68.3632 0090101 150.8118 209.8202 15.36055494819991
Epoch (UTC): 27 February 2021 07:49:11
Eccentricity: 0.0090101
inclination: 98.2492°
perigee height: 396 km
apogee height: 519 km
right ascension of ascending node: 68.3632°
argument of perigee: 150.8118°
revolutions per day: 15.36055494
mean anomaly at epoch: 209.8202°
orbit number at epoch: 81999

The dashed part of the orbit path shows where the satellite is in the earth's shadow,  

DLR